Location: Belvedere Heights
(33.9836°N, 117.3109°W)
Time: 23:56:23
(UTC+00:00)

Cosmos 1378 - Visible Passes

Search period start: 04 December 2023 00:00
Search period end: 14 December 2023 00:00
Orbit: 448 x 451 km, 82.5° (Epoch: 04 December)

Date Brightness Start Highest point End Pass type
(mag) Time Alt. Az. Time Alt. Az. Time Alt. Az.
04 Dec 5.1 13:43:08 10° NNE 13:46:10 28° E 13:49:10 10° SE visible
05 Dec 6.1 13:09:03 10° NE 13:10:25 12° ENE 13:11:47 10° E visible
06 Dec 5.7 02:41:18 10° S 02:41:31 11° S 02:41:31 11° S visible
06 Dec 2.9 14:05:49 10° NNW 14:09:15 69° W 14:12:40 10° S visible
07 Dec 4.9 02:06:10 10° SSE 02:07:10 17° SE 02:07:10 17° SE visible
07 Dec 4.3 13:30:19 10° N 13:33:36 41° E 13:36:52 10° SSE visible
08 Dec 5.0 01:32:13 10° ESE 01:32:47 11° ESE 01:32:47 11° ESE visible
08 Dec 5.6 03:04:54 10° SW 03:06:29 19° WSW 03:06:29 19° WSW visible
08 Dec 5.9 12:55:29 10° NE 12:57:48 17° ENE 13:00:06 10° ESE visible
09 Dec 3.2 02:28:34 10° SSW 02:31:59 63° W 02:32:02 63° WNW visible
09 Dec 3.2 13:53:06 10° NNW 13:56:24 44° W 13:59:42 10° SSW visible
10 Dec 3.2 01:52:59 10° SSE 01:56:16 44° E 01:57:31 30° NE visible
10 Dec 3.3 13:17:16 10° N 13:20:42 62° E 13:24:05 10° SSE visible
11 Dec 4.5 01:18:17 10° SE 01:20:39 18° E 01:22:55 10° NE visible
11 Dec 5.8 02:52:30 10° WSW 02:54:50 17° WNW 02:56:36 12° NW visible
11 Dec 5.3 12:42:26 12° NNE 12:44:50 23° ENE 12:47:39 10° SE visible
11 Dec 4.9 14:17:19 10° WNW 14:18:52 13° W 14:20:24 10° WSW visible
12 Dec 4.1 02:15:37 10° SSW 02:18:54 42° W 02:21:53 12° N visible
12 Dec 3.7 13:41:30 19° NW 13:43:13 30° W 13:46:16 10° SSW visible
13 Dec 2.8 01:39:38 10° S 01:43:03 67° E 01:46:29 10° NNE visible
13 Dec 2.7 13:06:53 61° NNW 13:07:26 86° W 13:10:52 10° S visible
